When you browse on this site, cookies collect data to enhance your experience and personalize the content and advertising you see.
Visit our Privacy Policy to learn more. By continuing to use the site, you agree to this use of cookies and data.
  • In Romania
  • List of Countries
  • For 7 days
  • Water Temperature
  • Weather Map
  • Weather Widgets
  • user-avatar
    Login

    Hourly Weather Escuintla

    Today, 7 December, Saturday

    Time Temperature Precipitation Wind Pressure Humidity
    00:00 +24°C° 0 mm 2 mps 732 mmHg 80%
    01:00 +24°C° 0 mm 2 mps 731 mmHg 78%
    02:00 +24°C° 0 mm 2 mps 731 mmHg 77%
    03:00 +24°C° 0 mm 2 mps 731 mmHg 76%
    04:00 +24°C° 0 mm 2 mps 731 mmHg 75%
    05:00 +24°C° 0 mm 2 mps 731 mmHg 75%
    06:00 +24°C° 0 mm 2 mps 731 mmHg 74%
    07:00 +25°C° 0 mm 2 mps 732 mmHg 69%
    08:00 +27°C° 0 mm 1 mps 732 mmHg 64%
    09:00 +29°C° 0 mm 1 mps 733 mmHg 59%
    10:00 +30°C° 0 mm 1 mps 732 mmHg 55%
    11:00 +31°C° 0 mm 1 mps 732 mmHg 52%
    12:00 +32°C° 0 mm 2 mps 731 mmHg 49%
    13:00 +32°C° 0 mm 2 mps 731 mmHg 50%
    14:00 +32°C° 0 mm 2 mps 730 mmHg 52%
    15:00 +32°C° 0 mm 2 mps 730 mmHg 53%
    16:00 +30°C° 0 mm 1 mps 730 mmHg 62%
    17:00 +28°C° 0 mm 1 mps 730 mmHg 70%
    18:00 +26°C° 0 mm 1 mps 730 mmHg 79%
    19:00 +25°C° 0 mm 1 mps 731 mmHg 77%
    20:00 +25°C° 0 mm 2 mps 731 mmHg 76%
    21:00 +25°C° 0 mm 2 mps 732 mmHg 75%
    22:00 +24°C° 0 mm 2 mps 731 mmHg 75%
    23:00 +24°C° 0 mm 2 mps 731 mmHg 74%

    Tomorrow, 8 December, Sunday

    Time Temperature Precipitation Wind Pressure Humidity
    00:00 +24°C° 0 mm 2 mps 731 mmHg 74%
    01:00 +24°C° 0 mm 2 mps 731 mmHg 73%
    02:00 +23°C° 0 mm 2 mps 731 mmHg 72%
    03:00 +23°C° 0 mm 2 mps 730 mmHg 71%
    04:00 +23°C° 0 mm 2 mps 730 mmHg 70%
    05:00 +23°C° 0 mm 2 mps 730 mmHg 69%
    06:00 +23°C° 0 mm 2 mps 730 mmHg 68%
    07:00 +25°C° 0 mm 2 mps 731 mmHg 64%
    08:00 +27°C° 0 mm 1 mps 732 mmHg 59%
    09:00 +29°C° 0 mm 1 mps 732 mmHg 55%
    10:00 +30°C° 0 mm 1 mps 731 mmHg 52%
    11:00 +31°C° 0 mm 1 mps 731 mmHg 49%
    12:00 +32°C° 0 mm 1 mps 730 mmHg 46%
    13:00 +32°C° 0 mm 1 mps 730 mmHg 48%
    14:00 +32°C° 0 mm 1 mps 729 mmHg 51%
    15:00 +31°C° 0 mm 2 mps 729 mmHg 53%
    16:00 +29°C° 0 mm 1 mps 729 mmHg 63%
    17:00 +27°C° 0 mm 1 mps 729 mmHg 73%
    18:00 +25°C° 0 mm 1 mps 729 mmHg 83%
    19:00 +25°C° 0 mm 1 mps 729 mmHg 81%
    20:00 +24°C° 0 mm 1 mps 730 mmHg 79%
    21:00 +24°C° 0 mm 1 mps 730 mmHg 77%
    22:00 +24°C° 0 mm 2 mps 730 mmHg 77%
    23:00 +24°C° 0 mm 2 mps 730 mmHg 77%

    Day after tomorrow, 9 December, Monday

    Time Temperature Precipitation Wind Pressure Humidity
    00:00 +24°C° 0 mm 2 mps 730 mmHg 76%
    01:00 +23°C° 0 mm 2 mps 730 mmHg 76%
    02:00 +23°C° 0 mm 2 mps 729 mmHg 76%
    03:00 +23°C° 0 mm 2 mps 729 mmHg 76%
    04:00 +23°C° 0 mm 2 mps 729 mmHg 76%
    05:00 +23°C° 0 mm 2 mps 729 mmHg 75%
    06:00 +23°C° 0 mm 2 mps 730 mmHg 75%
    07:00 +25°C° 0 mm 1 mps 730 mmHg 68%
    08:00 +27°C° 0 mm 1 mps 730 mmHg 61%
    09:00 +28°C° 0 mm 0 mps 731 mmHg 55%
    10:00 +31°C° 0 mm 1 mps 730 mmHg 52%
    11:00 +32°C° 0 mm 1 mps 730 mmHg 50%
    12:00 +32°C° 0 mm 2 mps 729 mmHg 48%
    13:00 +32°C° 0 mm 2 mps 729 mmHg 52%
    14:00 +31°C° 0 mm 2 mps 728 mmHg 56%
    15:00 +31°C° 0 mm 2 mps 728 mmHg 59%
    16:00 +29°C° 0.3 mm 1 mps 728 mmHg 70%
    17:00 +27°C° 0.3 mm 1 mps 728 mmHg 81%
    18:00 +23°C° 0.3 mm 0 mps 728 mmHg 91%
    19:00 +23°C° 0.1 mm 0 mps 729 mmHg 91%
    20:00 +24°C° 0.1 mm 1 mps 729 mmHg 90%
    21:00 +24°C° 0.1 mm 1 mps 730 mmHg 90%
    22:00 +24°C° 0 mm 1 mps 730 mmHg 89%
    23:00 +24°C° 0 mm 1 mps 729 mmHg 88%

    10 December, Tuesday

    Time Temperature Precipitation Wind Pressure Humidity
    00:00 +23°C° 0 mm 1 mps 729 mmHg 88%
    01:00 +23°C° 0 mm 1 mps 729 mmHg 87%
    02:00 +23°C° 0 mm 1 mps 729 mmHg 86%
    03:00 +23°C° 0 mm 1 mps 728 mmHg 85%
    04:00 +23°C° 0 mm 1 mps 729 mmHg 84%
    05:00 +23°C° 0 mm 1 mps 729 mmHg 82%
    06:00 +23°C° 0 mm 1 mps 729 mmHg 81%
    07:00 +25°C° 0 mm 1 mps 730 mmHg 75%
    08:00 +27°C° 0 mm 1 mps 730 mmHg 69%
    09:00 +27°C° 0 mm 0 mps 731 mmHg 63%
    10:00 +30°C° 0 mm 1 mps 730 mmHg 60%
    11:00 +31°C° 0 mm 1 mps 730 mmHg 58%
    12:00 +32°C° 0 mm 2 mps 729 mmHg 56%
    13:00 +31°C° 0.6 mm 2 mps 729 mmHg 62%
    14:00 +31°C° 0.6 mm 2 mps 728 mmHg 68%
    15:00 +30°C° 0.6 mm 1 mps 728 mmHg 73%
    16:00 +28°C° 0.6 mm 1 mps 728 mmHg 79%
    17:00 +27°C° 0.6 mm 1 mps 728 mmHg 85%
    18:00 +23°C° 0.6 mm 0 mps 728 mmHg 91%
    19:00 +25°C° 0.3 mm 1 mps 729 mmHg 91%
    20:00 +25°C° 0.3 mm 1 mps 729 mmHg 91%
    21:00 +24°C° 0.3 mm 1 mps 730 mmHg 91%
    22:00 +24°C° 0 mm 1 mps 730 mmHg 90%
    23:00 +24°C° 0 mm 1 mps 730 mmHg 89%

    11 December, Wednesday

    Time Temperature Precipitation Wind Pressure Humidity
    00:00 +23°C° 0 mm 2 mps 730 mmHg 88%
    01:00 +23°C° 0 mm 2 mps 730 mmHg 87%
    02:00 +23°C° 0 mm 2 mps 729 mmHg 86%
    03:00 +23°C° 0 mm 2 mps 729 mmHg 85%
    04:00 +23°C° 0 mm 2 mps 729 mmHg 83%
    05:00 +23°C° 0 mm 2 mps 729 mmHg 82%
    06:00 +23°C° 0 mm 2 mps 729 mmHg 80%
    07:00 +25°C° 0 mm 2 mps 730 mmHg 74%
    08:00 +27°C° 0 mm 1 mps 731 mmHg 68%
    09:00 +29°C° 0 mm 1 mps 731 mmHg 61%
    10:00 +30°C° 0 mm 1 mps 731 mmHg 58%
    11:00 +31°C° 0 mm 2 mps 730 mmHg 55%
    12:00 +34°C° 0 mm 2 mps 730 mmHg 52%
    13:00 +32°C° 0.1 mm 2 mps 729 mmHg 54%
    14:00 +32°C° 0.1 mm 2 mps 729 mmHg 56%
    15:00 +32°C° 0.1 mm 2 mps 728 mmHg 58%
    16:00 +30°C° 0.3 mm 2 mps 729 mmHg 67%
    17:00 +27°C° 0.3 mm 1 mps 729 mmHg 75%
    18:00 +25°C° 0.3 mm 1 mps 729 mmHg 84%
    19:00 +25°C° 0 mm 1 mps 730 mmHg 82%
    20:00 +25°C° 0 mm 2 mps 730 mmHg 80%
    21:00 +25°C° 0 mm 2 mps 731 mmHg 77%
    22:00 +25°C° 0 mm 2 mps 731 mmHg 76%
    23:00 +25°C° 0 mm 2 mps 730 mmHg 75%

    12 December, Thursday

    Time Temperature Precipitation Wind Pressure Humidity
    00:00 +24°C° 0 mm 2 mps 730 mmHg 73%
    01:00 +24°C° 0 mm 2 mps 730 mmHg 73%
    02:00 +24°C° 0 mm 2 mps 730 mmHg 73%
    03:00 +24°C° 0 mm 2 mps 729 mmHg 72%
    04:00 +24°C° 0 mm 2 mps 729 mmHg 72%
    05:00 +24°C° 0 mm 2 mps 730 mmHg 72%
    06:00 +24°C° 0 mm 2 mps 730 mmHg 72%
    07:00 +26°C° 0 mm 2 mps 730 mmHg 68%
    08:00 +28°C° 0 mm 2 mps 731 mmHg 63%
    09:00 +30°C° 0 mm 1 mps 731 mmHg 58%
    10:00 +31°C° 0 mm 2 mps 731 mmHg 56%
    11:00 +32°C° 0 mm 2 mps 731 mmHg 53%
    12:00 +34°C° 0 mm 2 mps 730 mmHg 50%
    13:00 +32°C° 0.2 mm 2 mps 730 mmHg 54%
    14:00 +32°C° 0.2 mm 2 mps 729 mmHg 57%
    15:00 +31°C° 0.2 mm 2 mps 728 mmHg 60%
    16:00 +29°C° 0.4 mm 2 mps 728 mmHg 68%
    17:00 +28°C° 0.4 mm 1 mps 729 mmHg 76%
    18:00 +26°C° 0.4 mm 1 mps 729 mmHg 84%
    19:00 +25°C° 0 mm 1 mps 729 mmHg 83%
    20:00 +25°C° 0 mm 2 mps 730 mmHg 83%
    21:00 +24°C° 0 mm 2 mps 730 mmHg 82%
    22:00 +24°C° 0 mm 2 mps 730 mmHg 81%
    23:00 +24°C° 0 mm 2 mps 730 mmHg 80%
    Show more